Regional Weather Roundup
Issued by NWS Charleston, WV

Home | Current Version | Previous Version | Graphics & Text | Print | Product List | Glossary On
Versions: 1 2 3 4 5 6 7 8 9 10 11 12 13 14 15 16 17 18 19 20 21 22 23 24 25 26 27 28
000
ASUS41 KRLX 161610
RWRRLX
West Virginia Regional Weather Roundup
National Weather Service Charleston WV
1100 AM EST SAT DEC 16 2017

Note: "fair" indicates few or no clouds below 12,000 feet with no
significant weather and/or obstructions to visibility.

WVZ003-161700-
Northern Panhandle of West Virginia

CITY           SKY/WX    TMP DP  RH WIND       PRES   REMARKS
WHEELING       CLOUDY    34  23  64 MISG      30.05R
$$

WVZ009-161700-
Northwest West Virginia

CITY           SKY/WX    TMP DP  RH WIND       PRES   REMARKS
PARKERSBURG    PTSUNNY   38  24  57 SW12G23   30.15R
$$

WVZ006-161700-
Western West Virginia

CITY           SKY/WX    TMP DP  RH WIND       PRES   REMARKS
HUNTINGTON     SUNNY     41  24  51 SW12G22   30.17R
$$

WVZ015-161700-
West Central West Virginia

CITY           SKY/WX    TMP DP  RH WIND       PRES   REMARKS
CHARLESTON     MOSUNNY   42  24  49 SW14G23   30.16S
$$

WVZ022-031-161700-
North Central West Virginia

CITY           SKY/WX    TMP DP  RH WIND       PRES   REMARKS
CLARKSBURG     CLOUDY    37  24  59 SW13      30.10F
MORGANTOWN     CLOUDY    35  22  58 SW7G20    30.09R
$$

WVZ025-035-042-045-161700-
Southern West Virginia

CITY           SKY/WX    TMP DP  RH WIND       PRES   REMARKS
BECKLEY        MOSUNNY   33  22  63 W13       30.14R
LOGAN            N/A     39  25  56 VRB3G12   30.16S
BLUEFIELD      SUNNY     33  21  61 W12       30.15R
LEWISBURG      PTSUNNY   35  23  62 SW10      30.14F
$$

WVZ047-161700-
Northern Mountains of West Virginia

CITY           SKY/WX    TMP DP  RH WIND       PRES   REMARKS
ELKINS         CLOUDY    35  23  61 SW8       30.09S
$$

WVZ052-161700-
Eastern Panhandle of West Virginia

CITY           SKY/WX    TMP DP  RH WIND       PRES   REMARKS
MARTINSBURG    SUNNY     41  19  41 S8        30.07F
PETERSBURG     SUNNY     44  22  43 W10G18    30.07S
$$




USA.gov is the U.S. government's official web portal to all federal, state and local government web resources and services.